FW0743 Weather Reports


Display with metric or nautical units.
time (UTC)temp
F
wind
direction
speed
MPH
gust
MPH
rain 1hr
in
rain 24hr
in
rain mn
in
humidity
%
barometer
mb
20260901203047 74 170 3.0 6.0 0.00 0.13 0.13 86 1015.5
20260901201528 74 196 1.0 3.0 0.00 0.13 0.13 86 1015.4
20260901200037 74 208 1.0 7.0 0.00 0.13 0.13 86 1015.4
20260901194540 74 150 1.0 4.0 0.00 0.13 0.13 86 1015.2
20260901193021 74 188 1.0 3.0 0.00 0.13 0.13 86 1015.1
20260901191527 73 188 1.0 2.0 0.00 0.13 0.13 88 1015.2
20260901190032 72 188 0.0 2.0 0.00 0.13 0.13 89 1015.2
20260901184534 73 188 0.0 4.0 0.00 0.13 0.13 88 1015.2
20260901183041 73 144 1.0 5.0 0.00 0.13 0.13 88 1015.1
20260901181526 73 182 3.0 8.0 0.00 0.13 0.13 87 1015.0
20260901180031 73 142 1.0 5.0 0.00 0.13 0.13 88 1014.9
20260901174532 74 26 2.0 8.0 0.00 0.13 0.13 85 1014.9
20260901173049 73 169 0.0 4.0 0.00 0.13 0.13 85 1014.7
20260901171526 73 256 1.0 5.0 0.00 0.13 0.13 86 1014.7
20260901170033 73 198 1.0 4.0 0.00 0.13 0.13 86 1014.8
20260901164510 74 252 1.0 6.0 0.00 0.13 0.13 87 1014.8
20260901163015 73 144 2.0 8.0 0.00 0.14 0.13 87 1014.6
20260901161520 71 134 3.0 8.0 0.00 0.14 0.13 91 1014.7
20260901160031 70 154 3.0 8.0 0.00 0.14 0.13 92 1014.8
20260901154530 69 131 4.0 7.0 0.01 0.14 0.13 92 1014.9
20260901153012 69 146 4.0 6.0 0.01 0.14 0.13 93 1014.9
20260901151518 69 172 5.0 9.0 0.01 0.14 0.13 93 1014.7
20260901150024 68 172 5.0 10.0 0.01 0.14 0.13 97 1014.6
20260901144530 67 149 7.0 13.0 0.00 0.13 0.12 98 1014.6
20260901143042 66 142 5.0 10.0 0.00 0.13 0.12 98 1014.4
20260901141516 65 190 4.0 10.0 0.00 0.13 0.12 98 1014.5
20260901140028 64 150 4.0 8.0 0.00 0.13 0.12 98 1014.6
20260901134527 64 132 2.0 9.0 0.00 0.13 0.12 99 1014.8
20260901133029 64 132 3.0 7.0 0.00 0.13 0.12 99 1014.8
20260901131514 64 175 4.0 7.0 0.00 0.13 0.12 99 1014.7
20260901130034 64 165 3.0 8.0 0.00 0.13 0.12 99 1014.9
20260901124523 64 136 5.0 9.0 0.00 0.13 0.12 99 1015.0
20260901123028 63 162 4.0 9.0 0.00 0.13 0.12 99 1015.1
20260901121532 63 171 4.0 10.0 0.00 0.13 0.12 99 1015.1
20260901120027 63 140 3.0 8.0 0.00 0.13 0.12 99 1015.2
20260901114521 63 161 3.0 6.0 0.00 0.13 0.12 99 1015.2
20260901113034 63 157 2.0 5.0 0.00 0.13 0.12 98 1015.2
20260901111532 63 154 1.0 6.0 0.00 0.13 0.12 98 1015.2
20260901110040 63 174 3.0 6.0 0.00 0.13 0.12 98 1014.7
20260901104519 63 195 1.0 6.0 0.00 0.13 0.12 99 1015.1
20260901103028 63 130 0.0 4.0 0.00 0.13 0.12 98 1015.1
20260901101530 63 167 3.0 5.0 0.01 0.13 0.12 98 1015.1
20260901100033 63 204 1.0 5.0 0.02 0.13 0.12 98 1015.2
20260901094534 63 170 1.0 5.0 0.02 0.13 0.12 98 1015.3
20260901093024 63 195 1.0 6.0 0.02 0.13 0.12 98 1015.4
20260901091525 63 213 1.0 3.0 0.01 0.12 0.11 98 1015.5
20260901090028 63 119 1.0 3.0 0.00 0.11 0.10 98 1015.5
20260901084530 63 209 1.0 3.0 0.01 0.11 0.10 98 1015.3
20260901083033 63 154 1.0 6.0 0.01 0.11 0.10 98 1015.3
20260901081506 63 151 3.0 6.0 0.02 0.11 0.10 98 1015.1
20260901080006 63 184 2.0 5.0 0.08 0.11 0.10 98 1015.4
20260901074508 63 174 0.0 6.0 0.09 0.10 0.09 98 1015.5
20260901073007 63 187 1.0 5.0 0.09 0.10 0.09 98 1015.7
20260901071518 63 152 3.0 6.0 0.08 0.09 0.08 98 1015.7
20260901070017 63 170 2.0 6.0 0.02 0.03 0.02 97 1015.7
20260901064505 63 194 3.0 5.0 0.00 0.01 0.00 97 1016.0
20260901063007 63 209 3.0 6.0 0.00 0.01 0.00 97 1016.1
20260901061508 63 157 2.0 6.0 0.00 0.01 0.00 96 1016.3
20260901060008 63 150 1.0 6.0 0.00 0.01 0.00 96 1016.4
20260901054512 63 134 3.0 8.0 0.00 0.01 0.00 96 1016.5
20260901053010 63 192 1.0 6.0 0.00 0.01 0.00 96 1016.7
20260901051509 63 145 1.0 4.0 0.00 0.01 0.00 95 1016.9
20260901050010 63 130 3.0 8.0 0.00 0.01 0.00 95 1016.7
20260901044514 63 174 2.0 5.0 0.00 0.01 0.00 95 1016.7
20260901043008 63 153 2.0 5.0 0.00 0.01 0.00 94 1017.1
20260901041511 63 163 2.0 5.0 0.00 0.01 0.00 94 1017.1
20260901040012 63 163 1.0 2.0 0.00 0.01 0.00 93 1017.4
20260901034522 63 163 1.0 4.0 0.00 0.01 0.01 93 1017.3
20260901033012 63 155 2.0 5.0 0.00 0.01 0.01 93 1017.2
20260901031507 63 140 2.0 4.0 0.00 0.01 0.01 92 1017.2
20260901030013 63 134 1.0 5.0 0.00 0.01 0.01 92 1017.3
20260901024514 63 180 3.0 7.0 0.00 0.01 0.01 92 1017.2
20260901023019 63 188 2.0 5.0 0.00 0.01 0.01 92 1017.4
20260901021520 63 153 1.0 6.0 0.00 0.01 0.01 92 1017.6
20260901020012 63 163 2.0 5.0 0.00 0.01 0.01 92 1017.6
20260901014516 63 159 3.0 6.0 0.00 0.01 0.01 92 1017.6
20260901013018 64 160 2.0 5.0 0.00 0.01 0.01 92 1017.8
20260901011523 64 180 0.0 4.0 0.00 0.01 0.01 92 1018.0
20260901010018 64 163 1.0 4.0 0.00 0.01 0.01 92 1018.1
20260901004516 64 153 2.0 5.0 0.00 0.01 0.01 91 1017.8
20260901003020 64 159 3.0 7.0 0.00 0.01 0.01 91 1017.6
20260901001519 64 166 2.0 6.0 0.00 0.01 0.01 91 1017.4
20260901000021 64 175 3.0 7.0 0.00 0.01 0.01 91 1017.5
20260831234519 64 160 3.0 6.0 0.00 0.01 0.01 91 1017.4
20260831233017 64 150 3.0 6.0 0.00 0.01 0.01 91 1017.6
20260831231519 64 176 1.0 7.0 0.00 0.01 0.01 91 1017.7
20260831230019 64 175 4.0 8.0 0.00 0.01 0.01 91 1017.7
20260831224512 65 161 1.0 5.0 0.00 0.01 0.01 90 1017.9
20260831223019 65 161 2.0 9.0 0.00 0.01 0.01 90 1018.0
20260831221523 65 159 4.0 11.0 0.00 0.01 0.01 90 1018.0
20260831220025 65 185 3.0 8.0 0.00 0.01 0.01 90 1018.1
20260831214508 65 137 3.0 7.0 0.00 0.01 0.01 90 1018.1
20260831213014 64 143 2.0 7.0 0.00 0.01 0.01 91 1018.2
20260831211520 64 173 2.0 10.0 0.00 0.01 0.01 91 1018.4
20260831210025 64 153 4.0 9.0 0.00 0.01 0.01 91 1018.5
20260831204523 64 149 6.0 10.0 0.00 0.01 0.01 91 1018.6